Wind_Speed
16 13 12 13 17 24 27 26 24 24 23 22 21 20 20 20 21 21 21 21 20 20 20 18 19 19 17 17 17 16 16 17 17 19 19 18 19 18 19 19 19 19
17 14 13 14 17 22 26 25 24 25 24 24 22 22 23 23 23 23 23 22 21 20 19 17 17 18 18 19 19 17 17 17 18 21 22 21 20 20 20 20 19 18
18 15 14 14 16 22 26 26 25 26 26 25 24 24 24 24 24 24 24 23 21 20 19 17 17 18 19 20 20 18 17 17 18 21 23 24 21 20 20 20 19 18
20 16 14 13 15 22 26 26 25 26 25 24 23 24 24 24 24 25 24 22 21 19 19 19 19 19 20 21 21 19 16 18 20 21 23 24 21 20 20 19 18 17
21 16 14 13 16 22 27 26 26 26 24 23 23 23 23 23 24 24 24 22 20 19 20 21 21 21 21 21 21 18 16 17 19 20 23 23 20 19 19 19 17 16
22 17 15 15 17 23 27 26 25 25 24 23 23 23 23 23 23 24 23 22 20 21 22 22 22 21 20 20 19 17 17 17 18 20 22 22 20 19 19 19 17 17
24 20 17 16 18 24 28 27 26 25 24 23 23 23 24 24 23 23 23 22 21 22 22 22 21 21 20 19 17 16 17 17 18 20 22 21 20 19 20 20 19 19
26 22 19 17 19 24 29 28 27 26 24 23 23 23 24 24 23 22 22 22 22 22 22 22 21 20 20 19 17 16 17 18 19 20 21 21 20 20 20 21 20 19
28 24 21 19 19 25 29 29 27 26 25 23 23 23 24 24 23 23 22 22 22 22 22 21 21 21 20 20 18 17 17 18 19 19 20 20 20 21 21 21 20 19
31 27 23 20 20 25 30 29 27 27 25 23 23 24 24 24 24 23 23 23 23 23 21 21 21 21 21 21 19 18 18 19 19 19 19 20 20 20 21 20 20 20
33 30 25 22 21 25 30 30 28 27 26 24 23 23 24 24 24 23 23 24 23 23 22 20 21 21 21 21 20 19 20 20 20 19 19 19 19 20 20 20 21 21
35 32 28 23 22 25 30 31 29 28 26 24 23 23 23 23 23 24 24 24 24 23 22 21 21 21 21 21 20 20 21 22 22 21 20 20 20 20 21 20 21 21
36 34 30 26 24 26 30 31 30 29 27 25 23 23 23 23 23 24 24 24 24 23 22 21 21 21 21 21 21 20 22 23 24 23 22 22 22 21 20 20 20 21
37 36 33 29 26 27 30 31 30 30 28 26 24 23 23 23 23 24 24 24 24 24 23 22 21 21 21 21 21 21 22 24 25 24 23 22 22 21 20 20 20 20
38 37 35 31 28 28 30 31 31 31 29 27 25 24 23 24 24 25 25 25 25 24 23 22 21 21 21 21 21 22 23 25 25 24 23 22 21 21 20 20 21 21
40 39 37 33 29 29 31 32 32 31 30 28 27 25 24 25 25 25 26 26 25 24 23 21 21 21 21 21 22 22 24 25 25 24 23 22 22 21 21 21 22 21
41 40 39 35 31 30 32 33 33 32 31 30 28 26 25 26 26 26 26 25 24 23 22 21 21 21 22 22 22 22 24 25 26 25 24 23 23 22 22 23 22 22
42 41 40 36 33 31 32 34 34 33 32 31 29 27 26 26 27 27 26 25 24 23 21 21 21 22 22 22 22 22 24 25 25 25 25 24 24 24 23 23 23 23
42 41 40 38 34 32 33 35 34 34 33 32 30 28 27 27 27 27 27 26 25 23 21 21 22 23 23 23 23 23 24 24 25 25 25 25 24 24 24 24 23 24
42 41 40 38 35 34 34 34 35 35 34 33 31 29 28 26 26 28 28 26 25 23 22 22 23 23 23 23 23 23 24 24 25 26 25 25 25 25 24 24 24 24
43 42 41 39 36 35 34 34 35 36 35 34 32 30 28 26 27 28 28 27 25 24 24 24 24 23 23 23 24 24 24 25 25 26 25 25 25 25 25 25 25 25
42 42 41 39 37 35 34 34 36 37 36 35 33 31 28 27 27 28 29 28 27 26 25 24 24 24 23 24 24 24 25 25 26 26 26 25 25 25 25 25 25 24
42 41 40 39 37 36 34 34 37 38 37 36 34 32 29 27 27 29 30 29 27 27 26 25 25 24 24 24 24 25 25 26 26 26 26 25 25 25 26 26 24 23
41 40 39 38 37 36 35 35 37 39 38 36 35 32 29 28 28 29 30 29 28 28 28 27 26 25 24 24 24 25 25 26 27 26 25 25 25 26 26 26 24 23
39 39 38 38 37 36 35 35 38 39 38 36 35 32 30 29 29 30 30 29 28 29 29 28 27 25 24 24 24 24 25 26 26 25 24 24 25 26 26 25 24 23
38 38 38 37 37 36 35 35 38 39 38 36 35 33 31 30 30 29 30 30 30 30 30 29 27 26 24 24 24 25 25 25 25 24 25 25 26 27 26 25 24 23
Wind_Direction
235 234 231 228 226 222 218 219 222 222 220 221 222 223 223 225 227 229 231 234 236 238 238 239 246 251 251 252 252 248 243 240 237 235 232 231 233 239 244 249 254 258
235 232 230 229 227 222 219 220 222 221 219 220 221 223 226 228 230 232 234 236 238 241 241 238 243 250 254 257 257 250 245 241 235 232 232 233 235 239 244 249 253 257
235 232 231 232 231 223 218 220 221 220 218 219 221 224 227 229 232 234 236 238 240 244 247 244 246 251 255 257 256 254 253 247 238 235 233 233 236 240 244 248 252 255
236 232 231 233 232 222 217 219 221 220 219 220 223 226 229 231 233 235 238 240 242 245 248 249 249 252 254 257 258 257 256 247 241 238 233 231 236 242 244 246 249 254
234 228 230 235 232 222 217 219 221 220 219 220 224 227 230 232 233 235 238 240 242 245 248 250 252 254 256 260 262 259 255 246 239 234 227 228 237 244 244 245 249 256
231 226 230 235 232 221 217 220 222 220 218 219 223 226 230 232 233 235 236 237 240 245 249 251 253 256 258 261 262 258 255 248 238 230 225 228 240 246 244 246 252 258
231 227 230 234 231 221 217 219 221 219 217 219 223 227 229 232 233 234 234 235 240 245 250 253 254 255 258 259 259 257 253 245 235 230 228 231 240 244 246 251 255 260
231 227 229 234 232 222 217 219 221 218 217 219 223 228 230 232 232 232 233 235 240 246 250 252 253 254 256 256 255 254 249 239 231 229 230 233 239 243 247 252 257 262
230 227 229 232 232 224 218 220 222 219 218 220 223 227 230 231 231 232 234 237 241 246 248 251 252 253 254 254 252 248 240 232 228 228 229 233 239 243 246 252 258 265
231 228 229 231 232 227 220 220 222 220 219 220 223 227 229 231 232 233 236 239 243 247 248 249 251 252 253 252 250 244 235 229 228 229 231 234 238 243 247 253 259 265
233 229 229 232 233 228 221 220 222 222 220 221 223 227 229 232 233 235 239 241 244 247 248 248 250 251 251 249 247 241 233 229 228 229 232 237 241 246 251 256 262 268
234 231 230 232 233 229 222 220 222 222 221 222 224 226 228 231 233 236 240 243 245 247 248 249 249 249 249 247 244 238 231 229 229 231 235 241 245 249 254 260 266 271
233 231 230 232 233 229 223 220 222 223 222 223 224 225 227 229 232 236 240 243 245 248 250 249 249 249 249 246 242 236 230 229 230 232 236 241 247 253 259 265 269 273
233 231 230 231 232 230 224 220 221 223 222 223 224 226 226 228 231 234 238 242 245 249 251 250 250 250 249 246 241 235 229 228 230 233 237 243 250 257 263 267 270 272
232 231 229 229 231 231 225 221 221 223 222 223 225 225 225 228 231 233 237 242 246 249 252 251 250 251 249 245 240 234 229 228 230 235 241 247 254 260 264 267 269 272
230 231 229 228 231 232 227 222 221 222 222 223 225 225 225 229 233 236 239 244 247 250 252 251 250 251 249 244 239 234 230 230 232 238 245 251 257 260 263 265 268 271
226 230 229 227 230 232 229 223 222 223 222 223 224 224 225 230 235 238 241 243 246 249 251 249 248 249 248 243 238 235 233 233 236 242 249 254 258 259 261 265 268 273
222 227 228 226 228 232 230 225 223 223 222 223 224 224 226 231 237 240 242 243 245 248 248 247 246 247 246 242 238 236 236 237 241 246 252 255 257 259 262 266 271 275
219 224 225 224 227 231 231 227 224 223 224 223 224 224 227 231 236 241 243 243 244 246 247 245 244 245 244 241 237 237 238 241 245 249 253 255 258 261 264 267 272 275
217 221 223 222 225 230 231 229 225 224 225 224 223 225 228 231 236 241 244 243 243 244 244 244 243 243 242 240 237 237 239 242 246 250 253 257 260 262 265 268 272 275
215 219 221 221 223 229 231 229 225 225 226 224 224 226 228 231 236 242 244 243 242 243 243 244 244 243 242 240 238 238 240 243 246 250 254 258 260 263 265 269 272 276
213 217 219 220 223 228 231 228 226 226 226 224 224 225 227 230 235 240 243 242 240 241 243 245 245 244 241 239 238 239 241 243 247 251 255 258 261 264 267 270 274 277
213 216 218 219 223 228 231 229 227 226 225 224 224 225 227 231 235 240 242 242 240 241 244 246 246 244 241 240 240 240 242 245 248 252 256 259 261 264 267 271 275 278
211 215 217 219 223 229 231 228 227 226 225 223 223 225 227 230 234 238 242 242 241 241 242 245 245 245 243 241 241 241 243 245 249 252 256 259 262 264 267 271 274 278
209 213 216 219 223 228 230 227 225 226 224 221 221 223 226 228 232 237 241 243 241 240 240 243 245 246 245 242 242 242 243 246 249 252 255 258 261 263 266 270 274 278
209 212 215 218 223 227 228 225 223 225 223 220 219 222 225 227 232 237 241 241 240 239 239 242 245 246 244 242 241 242 243 246 249 251 254 256 259 261 264 269 274 276
Height
3127 3129 3130 3131 3132 3134 3136 3138 3140 3142 3143 3145 3146 3147 3147 3147 3147 3148 3149 3149 3150 3150 3152 3153 3153 3152 3153 3154 3155 3156 3157 3157 3158 3159 3159 3160 3161 3162 3162 3163 3164 3164
3125 3126 3127 3128 3130 3131 3133 3135 3137 3139 3141 3142 3143 3144 3144 3144 3145 3146 3146 3147 3147 3148 3150 3152 3151 3151 3152 3152 3153 3154 3155 3155 3156 3157 3158 3159 3159 3160 3161 3162 3162 3162
3122 3123 3124 3126 3127 3129 3131 3133 3134 3136 3138 3139 3140 3141 3142 3142 3143 3144 3144 3145 3145 3146 3147 3149 3149 3150 3150 3150 3151 3152 3153 3154 3154 3155 3156 3157 3157 3158 3159 3160 3160 3160
3119 3121 3122 3123 3125 3126 3128 3130 3132 3133 3135 3136 3137 3138 3139 3140 3141 3141 3142 3143 3144 3144 3145 3146 3147 3147 3148 3148 3149 3150 3151 3151 3152 3152 3153 3154 3155 3156 3157 3157 3158 3158
3117 3118 3119 3120 3122 3124 3126 3128 3129 3131 3133 3134 3135 3136 3137 3138 3138 3139 3140 3141 3142 3142 3143 3143 3144 3145 3145 3145 3146 3147 3148 3149 3149 3149 3150 3152 3153 3154 3155 3155 3156 3156
3114 3115 3116 3118 3119 3121 3123 3125 3127 3129 3130 3131 3132 3133 3134 3135 3136 3137 3138 3139 3140 3140 3140 3141 3142 3142 3143 3143 3144 3145 3145 3146 3147 3147 3148 3150 3151 3152 3153 3153 3154 3154
3112 3113 3113 3115 3116 3118 3120 3123 3125 3126 3127 3128 3129 3130 3131 3132 3133 3135 3136 3137 3138 3138 3138 3139 3139 3140 3140 3141 3141 3142 3143 3144 3144 3146 3147 3148 3149 3150 3151 3151 3151 3152
3109 3110 3111 3112 3114 3115 3118 3120 3122 3123 3124 3126 3127 3128 3129 3130 3131 3132 3134 3134 3135 3136 3136 3137 3137 3138 3138 3139 3140 3140 3141 3141 3142 3144 3145 3146 3147 3148 3149 3149 3149 3150
3106 3107 3108 3109 3111 3113 3115 3117 3119 3120 3122 3123 3124 3125 3127 3128 3129 3130 3131 3132 3133 3133 3134 3135 3135 3136 3136 3137 3138 3138 3139 3140 3141 3142 3143 3144 3145 3146 3147 3147 3147 3147
3102 3104 3105 3107 3108 3110 3112 3114 3116 3117 3119 3120 3122 3123 3124 3125 3126 3128 3129 3130 3131 3131 3132 3133 3133 3134 3134 3135 3136 3136 3137 3138 3139 3140 3141 3142 3143 3144 3145 3145 3145 3145
3099 3101 3102 3104 3106 3107 3109 3111 3113 3114 3116 3117 3119 3120 3122 3123 3124 3125 3126 3127 3128 3129 3130 3131 3131 3132 3132 3133 3133 3134 3135 3136 3137 3138 3139 3140 3141 3142 3142 3142 3143 3143
3096 3098 3100 3101 3103 3104 3106 3108 3110 3111 3113 3114 3116 3118 3119 3120 3122 3123 3124 3125 3126 3127 3127 3128 3129 3129 3130 3130 3131 3132 3133 3134 3135 3136 3137 3138 3139 3139 3140 3140 3140 3141
3092 3095 3097 3098 3100 3101 3103 3105 3107 3108 3110 3112 3113 3115 3116 3118 3119 3120 3121 3122 3123 3124 3125 3126 3127 3127 3127 3128 3129 3130 3131 3132 3133 3134 3135 3136 3137 3137 3137 3138 3138 3138
3089 3091 3093 3095 3096 3098 3100 3102 3104 3105 3107 3109 3110 3112 3114 3115 3116 3117 3119 3120 3121 3121 3122 3123 3124 3124 3125 3125 3126 3127 3128 3130 3131 3131 3132 3133 3134 3135 3135 3135 3135 3135
3085 3087 3089 3091 3093 3095 3097 3098 3100 3102 3104 3105 3107 3109 3111 3112 3113 3114 3116 3117 3118 3119 3120 3121 3121 3122 3122 3123 3123 3124 3126 3127 3128 3129 3130 3131 3131 3132 3132 3132 3132 3132
3080 3083 3085 3088 3089 3091 3093 3095 3097 3098 3100 3102 3104 3105 3107 3108 3109 3111 3113 3114 3115 3117 3117 3118 3119 3119 3119 3120 3120 3122 3123 3124 3125 3126 3127 3128 3129 3129 3129 3129 3129 3129
3075 3078 3081 3084 3086 3087 3089 3091 3093 3095 3097 3099 3100 3102 3104 3105 3106 3108 3110 3111 3113 3114 3115 3115 3116 3116 3116 3117 3118 3119 3120 3122 3123 3124 3125 3125 3126 3126 3126 3126 3126 3126
3071 3074 3077 3080 3082 3084 3086 3087 3089 3091 3093 3095 3097 3099 3100 3102 3103 3105 3107 3109 3110 3111 3112 3112 3113 3113 3113 3114 3115 3117 3118 3119 3120 3121 3122 3123 3123 3123 3123 3123 3123 3123
3066 3069 3072 3075 3078 3080 3081 3083 3085 3087 3089 3091 3093 3095 3097 3099 3101 3102 3104 3105 3107 3108 3109 3109 3110 3110 3111 3112 3113 3114 3116 3117 3118 3119 3119 3120 3120 3120 3121 3121 3121 3120
3061 3064 3068 3071 3074 3075 3077 3079 3081 3083 3085 3088 3090 3091 3093 3096 3097 3099 3100 3102 3104 3105 3105 3106 3107 3107 3108 3109 3111 3112 3113 3114 3115 3116 3117 3117 3118 3118 3118 3118 3118 3117
3056 3060 3063 3066 3069 3071 3073 3075 3077 3079 3081 3084 3086 3088 3090 3092 3094 3095 3097 3099 3100 3101 3102 3103 3104 3105 3106 3107 3108 3109 3111 3112 3113 3113 3114 3115 3115 3115 3115 3115 3114 3114
3052 3055 3058 3061 3064 3067 3069 3071 3073 3075 3078 3080 3082 3084 3086 3089 3091 3092 3093 3095 3096 3098 3099 3100 3101 3102 3103 3104 3105 3107 3108 3109 3110 3111 3111 3112 3112 3112 3112 3111 3111 3111
3047 3050 3054 3057 3060 3062 3065 3067 3069 3071 3074 3076 3079 3081 3083 3085 3087 3088 3090 3092 3093 3095 3096 3097 3098 3099 3100 3101 3103 3104 3105 3106 3107 3108 3108 3108 3109 3109 3108 3108 3108 3108
3042 3046 3049 3053 3056 3058 3061 3063 3065 3067 3070 3073 3075 3078 3080 3082 3084 3085 3087 3088 3090 3092 3093 3093 3094 3095 3097 3098 3100 3101 3102 3103 3104 3104 3105 3105 3106 3106 3105 3105 3105 3105
3038 3041 3045 3049 3052 3055 3057 3059 3061 3064 3067 3070 3073 3075 3077 3079 3080 3082 3083 3085 3087 3088 3089 3090 3091 3093 3094 3095 3097 3098 3099 3100 3100 3101 3102 3102 3102 3102 3102 3102 3102 3102
3034 3038 3041 3045 3048 3051 3053 3056 3058 3060 3063 3067 3069 3072 3073 3075 3077 3079 3080 3081 3083 3084 3086 3087 3088 3089 3091 3092 3093 3095 3096 3097 3097 3098 3099 3099 3099 3099 3099 3099 3098 3098